This is the latest recevied weather packets stored in our database for station/object KSLG. If no packets are shown the sender has not sent any weather packets the latest 1 day(s).
| Time | Temp. | Humidity | Pressure | Rain* | Wind** | Luminosity | Snow |
|---|---|---|---|---|---|---|---|
| 1778120617 | 10.56° C | 71% | 1017.3 hPa | - | - | - | - |
| 1778119421 | 10.56° C | 71% | 1017.3 hPa | - | - | - | - |
| 1778118821 | 13.89° C | 54% | 1016.9 hPa | - | - | - | - |
| 1778118220 | 13.89° C | 54% | 1016.9 hPa | - | - | - | - |
| 1778117622 | 13.89° C | 54% | 1016.9 hPa | - | - | - | - |
| 1778117021 | 13.89° C | 54% | 1016.9 hPa | - | - | - | - |
| 1778116423 | 13.89° C | 54% | 1016.9 hPa | - | - | - | - |
| 1778115822 | 13.89° C | 54% | 1016.9 hPa | - | - | - | - |
| 1778115222 | 15° C | 54% | 1016.6 hPa | - | - | - | - |
| 1778114016 | 15° C | 54% | 1016.6 hPa | - | - | - | - |
| 1778113418 | 15° C | 54% | 1016.6 hPa | - | - | - | - |
| 1778112823 | 15° C | 54% | 1016.6 hPa | - | - | - | - |
| 1778111622 | 15° C | 51% | 1016.3 hPa | - | - | - | - |
| 1778110421 | 15° C | 51% | 1016.3 hPa | - | - | - | - |
| 1778109820 | 15° C | 51% | 1016.3 hPa | - | - | - | - |
| 1778108021 | 15° C | 58% | 1015.2 hPa | - | - | - | - |
| 1778106223 | 15° C | 58% | 1015.2 hPa | - | - | - | - |
| 1778103819 | 15° C | 58% | 1015.9 hPa | - | - | - | - |
| 1778103220 | 15° C | 58% | 1015.9 hPa | - | - | - | - |
| 1778099021 | 15° C | 58% | 1016.9 hPa | - | - | - | - |
| 1778097222 | 13.89° C | 62% | 1017.3 hPa | - | - | - | - |
| 1778096620 | 13.89° C | 62% | 1017.3 hPa | - | - | - | - |
| 1778094819 | 13.89° C | 62% | 1017.3 hPa | - | - | - | - |
| 1778093621 | 12.78° C | 66% | 1018.3 hPa | - | - | - | - |
| 1778088222 | 11.67° C | 71% | 1018.6 hPa | - | - | - | - |
* Rain since midnight (hover to see other rain measurements)
** Current wind speed in m/s (hover to see current wind gust speed)